sat.trackr.live / text

‹ back to catalog

STARLINK-5062

NORAD 55637 · 2023-021K

PAYLOAD ACTIVE UNKNOWN

§ Identity

Operator
Country
US
Launch date
2023-02-17
Launch site
AFWTR
Launch vehicle
Mass (kg)
RCS (m²)

Purposes: comms

External: N2YO · Heavens-Above · Gunter

§ Orbital elements

Epoch: 2026-09-20T22:00:03.000096Z

Period
95.79 min
Inclination
70.0018°
Eccentricity
0.0004375
Mean motion
15.03356555 rev/d
Perigee alt
553.5 km
Apogee alt
559.6 km
Semi-major
6,934.7 km
B*
3.3142e-3
RAAN
52.3091°
Arg perigee
308.9548°
Mean anomaly
9.7877°
Rev number
576

§ Raw data

STARLINK-50621 55637U 23021K   26263.91670139  .00045305  00000+0  33142-2 0  99902 55637  70.0018  52.3091 0004375 308.9548   9.7877 15.03356555  5764

JSON: /api/v1/satellites/55637 · /tle

For live sub-satellite position, see the globe view (requires WebGL).

§ Visibility from observer

Set your observer location to see the next 7 days of passes ≥ 10°. The values pass through the URL so the page stays shareable.

No JS? Fill the form by hand. The geolocation button needs JavaScript.